STARLINK-35384

Satellite information

Favourite Embed

Satellite Type and Status

PAYLOADIN ORBIT

Key statistics

Satellite STARLINK-35384 at a glance.

Uptime

20

Days in orbit

Revolutions

≈ 15.6

Per day

Orbit

LEO

Low Earth Orbit

Inclination

53.2

Latest

Satellite identification and parameters

Extended collection of information and parameters for STARLINK-35384.

Object identification

Identified? True

Debris? False

Object name: STARLINK-35384

International designator: 2025-224C

Object number (NORAD): 65884

Object ID (CCSDS): 65884

Country: UNITED STATES OF AMERICA (US)

Current information (Y/N): Y

Orbital parameters

Period: 92.114 minutes

Inclination: 53.1598 deg

SMA: 6756.317 km

Apoapsis: 378.883 km

Periapsis: 377.481 km

RAAN: 275.5043 deg

Eccentricy: 0.00010373

Argument of periapsis: 106.1656 deg

Mean anomaly: 260.6558 deg

Mean motion: 15.63283499 rev/day

Mean motion (dot): -0.01997021 rev/day2

B* drag term: -0.024292033 1/REarth

Two-line elements (TLE)

Creation date: Oct. 27, 2025, 2:46 a.m.

Reference frame: TEME

Reference center: EARTH

Epoch: Oct. 26, 2025, 10 p.m. UTC

TLE line 0: 0 STARLINK-35384

TLE line 1: 1 65884U 25224C 25299.91670139 -.01997021 00000-0 -24292-1 0 9990

TLE line 2: 2 65884 53.1598 275.5043 0001037 106.1656 260.6558 15.63283499 4338

Live tracking on map

Real-time ground track for satellite STARLINK-35384.

In-orbit conjunctions

There are no conjunctions computed for STARLINK-35384, at the moment. Check back to stay up to date, as we update our databases every day.

Go to all conjunctions

Associated space launch

A batch of 28 satellites for the Starlink mega-constellation - SpaceX's project for space-based Internet communication system.

STARLINK-35384 was lifted into orbit during the mission ‘Falcon 9 Block 5 | Starlink Group 10-59’, on board a Falcon 9 space rocket.

The launch took place on Oct. 7, 2025, 6:46 a.m. from Space Launch Complex 40.

For more information about the launch, click the button.

Launch to space Falcon 9 Block 5 | Starlink Group 10-59
Falcon 9 Block 5 | Starlink Group 10-59

Agency: SpaceX

Status: Launch Successful

Launch date: Oct. 7, 2025, 6:46 a.m. UTC

Rocket: Falcon 9

Launch pad: Space Launch Complex 40

Location: Cape Canaveral SFS, FL, USA

...

Latest news about this satellite

News about space launch
Launch Roundup: Falcon 9 to launch five times, Blue Origin to launch crew

SpaceX is set to dominate the launch manifest for the first whole week of October… The post Launch Roundup: Falcon 9 to launch five times, Blue Origin to launch crew appeared first on NASASpaceFlight.com.

News about space launch
Live coverage: SpaceX to launch Falcon 9 rocket on 90th Starlink mission of 2025

The Starlink 10-59 mission will add 28 broadband internet satellites into the growing megaconstellation. SpaceX is targeting liftoff from pad 40 at Cape Canaveral Space Force Station during a launch window that opens at 12:10 a.m. EDT (0410 UTC).

News about space launch
Launch Roundup: Falcon 9 launches Starlink and Kuiper satellites

SpaceX is scheduled to launch up to three times this week, with each mission planned… The post Launch Roundup: Falcon 9 launches Starlink and Kuiper satellites appeared first on NASASpaceFlight.com.


Newsletter sign-up

Weekly statistics, charts and insights to help you stay on top of the space industry.